Powrót do katalogu

SORCE

AktywnyNaukaVLEO
NORAD 27651·PAYLOAD·🇺🇸 United States

Wystrzelony Jan 25, 2003 z Cape Canaveral Space Force Station

Loading…

Następne Przeloty (najbliższe 24 godziny)

TLE

ŚwieżeSource: Space-Track

Epoka: Sep 14, 2026, 15:40 UTC

1 27651U 03004A   26257.65314689  .00002110  00000-0  15996-3 0  9999
2 27651  39.9898 111.0728 0018105 330.1370  29.8390 15.04108173285377

Śledź SORCE w czasie rzeczywistym z AllMySat

Download on the App Store